DLH85 EDDL-EDDN

Flight info

Callsign DLH85
Flight time 0h 45m
Altitude 23000
Route KUMIK5Z/05R KUMIK L603 TESGA Z719 ETOLU Z723 KOMIB T193 ERTES T194 DODAS DODAS1V
Aircraft A20N/M-SDE2E3FGHIRWXY/LB1

Departure

Time 2026-05-07 17:34
Airport Düsseldorf Airport (EDDL)

Arrival

Time 2026-05-07 18:19
Airport Nuremberg Airport (EDDN)
Time Latitude Longitude Altitude Speed Heading
2026-05-07 17:07 51.27739 6.76157 129 ft 0 kts 158°
2026-05-07 17:19 51.27742 6.76155 129 ft 1 kts 158°
2026-05-07 17:20 51.27752 6.76148 124 ft 2 kts 128°
2026-05-07 17:20 51.27758 6.76129 124 ft 0 kts 114°
2026-05-07 17:20 51.27763 6.76112 125 ft 2 kts 114°
2026-05-07 17:20 51.27768 6.76086 127 ft 0 kts 85°
2026-05-07 17:21 51.27758 6.76053 127 ft 3 kts 28°
2026-05-07 17:21 51.27742 6.76045 127 ft 0 kts 360°
2026-05-07 17:25 51.27744 6.76045 128 ft 3 kts 360°
2026-05-07 17:25 51.27801 6.76042 126 ft 13 kts 352°
2026-05-07 17:25 51.27842 6.75943 127 ft 10 kts 256°
2026-05-07 17:25 51.27849 6.75809 125 ft 14 kts 285°
2026-05-07 17:26 51.27860 6.75724 122 ft 2 kts 277°
2026-05-07 17:26 51.27891 6.75616 118 ft 16 kts 333°
2026-05-07 17:26 51.27976 6.75694 122 ft 15 kts 54°
2026-05-07 17:26 51.28042 6.75836 124 ft 17 kts 52°
2026-05-07 17:27 51.28082 6.75916 127 ft 13 kts 52°
2026-05-07 17:27 51.28087 6.75928 123 ft 6 kts 52°
2026-05-07 17:27 51.28122 6.76004 127 ft 11 kts 54°
2026-05-07 17:27 51.28178 6.76123 125 ft 15 kts 52°
2026-05-07 17:28 51.28237 6.76248 126 ft 10 kts 53°
2026-05-07 17:28 51.28289 6.76357 122 ft 15 kts 52°
2026-05-07 17:28 51.28303 6.76492 121 ft 9 kts 149°
2026-05-07 17:28 51.28247 6.76455 124 ft 11 kts 232°
2026-05-07 17:29 51.28197 6.76352 125 ft 12 kts 232°
2026-05-07 17:29 51.28199 6.76229 124 ft 13 kts 285°
2026-05-07 17:29 51.28155 6.76075 125 ft 19 kts 233°
2026-05-07 17:29 51.28062 6.75879 125 ft 25 kts 232°
2026-05-07 17:30 51.27951 6.75643 123 ft 27 kts 232°
2026-05-07 17:30 51.27919 6.75559 121 ft 0 kts 281°
2026-05-07 17:30 51.27919 6.75560 121 ft 2 kts 281°
2026-05-07 17:30 51.27916 6.75567 121 ft 5 kts 255°
2026-05-07 17:31 51.27918 6.75539 120 ft 1 kts 267°
2026-05-07 17:31 51.27918 6.75524 121 ft 0 kts 272°
2026-05-07 17:31 51.27941 6.75514 119 ft 10 kts 26°
2026-05-07 17:31 51.27982 6.75530 121 ft 0 kts
2026-05-07 17:32 51.27992 6.75530 119 ft 1 kts 354°
2026-05-07 17:32 51.28033 6.75501 118 ft 10 kts 340°
2026-05-07 17:32 51.28080 6.75500 120 ft 4 kts 14°
2026-05-07 17:32 51.28128 6.75549 119 ft 1 kts 44°
2026-05-07 17:33 51.28132 6.75554 117 ft 0 kts 38°
2026-05-07 17:33 51.28152 6.75606 119 ft 29 kts 56°
2026-05-07 17:33 51.28461 6.76251 120 ft 114 kts 53°
2026-05-07 17:33 51.29065 6.77509 354 ft 158 kts 53°
2026-05-07 17:34 51.29719 6.78903 1238 ft 160 kts 52°
2026-05-07 17:34 51.30396 6.80347 2129 ft 170 kts 52°
2026-05-07 17:34 51.31138 6.81961 2881 ft 187 kts 53°
2026-05-07 17:34 51.31922 6.83696 3734 ft 199 kts 53°
2026-05-07 17:35 51.32727 6.85550 4545 ft 207 kts 54°
2026-05-07 17:35 51.33648 6.87537 4930 ft 240 kts 51°
2026-05-07 17:35 51.34686 6.89839 5305 ft 266 kts 61°
2026-05-07 17:35 51.35197 6.92688 6260 ft 272 kts 86°
2026-05-07 17:36 51.35015 6.95730 7187 ft 278 kts 98°
2026-05-07 17:36 51.34702 6.98812 8089 ft 283 kts 99°
2026-05-07 17:36 51.34377 7.01950 9011 ft 289 kts 99°
2026-05-07 17:36 51.34048 7.05146 9979 ft 293 kts 99°
2026-05-07 17:37 51.33713 7.08425 10627 ft 308 kts 99°
2026-05-07 17:37 51.33355 7.11941 10953 ft 332 kts 99°
2026-05-07 17:37 51.32975 7.15684 11445 ft 347 kts 99°
2026-05-07 17:37 51.32594 7.19508 12262 ft 351 kts 98°
2026-05-07 17:38 51.32285 7.23397 13112 ft 355 kts 97°
2026-05-07 17:38 51.32010 7.27365 13910 ft 361 kts 96°
2026-05-07 17:38 51.31733 7.31368 14667 ft 364 kts 97°
2026-05-07 17:38 51.31400 7.35406 15404 ft 368 kts 102°
2026-05-07 17:39 51.30582 7.39290 16111 ft 371 kts 117°
2026-05-07 17:39 51.29198 7.42777 16808 ft 374 kts 130°
2026-05-07 17:39 51.27526 7.45989 17504 ft 378 kts 131°
2026-05-07 17:39 51.25836 7.49237 18211 ft 382 kts 131°
2026-05-07 17:40 51.24131 7.52522 18829 ft 386 kts 131°
2026-05-07 17:40 51.22414 7.55835 19455 ft 389 kts 131°
2026-05-07 17:40 51.20683 7.59172 20092 ft 392 kts 131°
2026-05-07 17:40 51.18935 7.62540 20707 ft 396 kts 131°
2026-05-07 17:41 51.17151 7.65904 21294 ft 399 kts 134°
2026-05-07 17:41 51.15140 7.68966 21875 ft 401 kts 142°
2026-05-07 17:41 51.12933 7.71690 22479 ft 404 kts 144°
2026-05-07 17:41 51.10692 7.74419 22925 ft 407 kts 144°
2026-05-07 17:42 51.08434 7.77154 23052 ft 408 kts 145°
2026-05-07 17:42 51.06168 7.79889 23052 ft 408 kts 144°
2026-05-07 17:42 51.03932 7.82668 23053 ft 408 kts 143°
2026-05-07 17:42 51.01726 7.85408 23054 ft 408 kts 144°
2026-05-07 17:43 50.99453 7.88205 23056 ft 408 kts 144°
2026-05-07 17:43 50.97232 7.90918 23053 ft 408 kts 144°
2026-05-07 17:43 50.94983 7.93649 23050 ft 408 kts 144°
2026-05-07 17:43 50.92725 7.96383 23052 ft 408 kts 144°
2026-05-07 17:44 50.90476 7.99127 23044 ft 408 kts 141°
2026-05-07 17:44 50.88560 8.02443 23047 ft 411 kts 125°
2026-05-07 17:44 50.87107 8.06356 23048 ft 413 kts 119°
2026-05-07 17:44 50.85789 8.10397 23051 ft 413 kts 118°
2026-05-07 17:45 50.84472 8.14442 23050 ft 413 kts 118°
2026-05-07 17:45 50.83128 8.18448 23051 ft 413 kts 119°
2026-05-07 17:45 50.81752 8.22432 23046 ft 413 kts 120°
2026-05-07 17:45 50.80359 8.26396 23047 ft 412 kts 120°
2026-05-07 17:46 50.78956 8.30352 23053 ft 413 kts 120°
2026-05-07 17:46 50.77550 8.34301 23048 ft 413 kts 120°
2026-05-07 17:46 50.76140 8.38253 23050 ft 412 kts 120°
2026-05-07 17:46 50.74729 8.42204 23050 ft 413 kts 120°
2026-05-07 17:47 50.73319 8.46143 23054 ft 412 kts 120°
2026-05-07 17:47 50.71909 8.50078 23060 ft 411 kts 120°
2026-05-07 17:47 50.70502 8.54004 23060 ft 412 kts 120°
2026-05-07 17:47 50.69091 8.57935 23054 ft 412 kts 120°
2026-05-07 17:48 50.67678 8.61862 23053 ft 412 kts 120°
2026-05-07 17:48 50.66264 8.65789 23063 ft 412 kts 120°
2026-05-07 17:48 50.64850 8.69710 23063 ft 412 kts 120°
2026-05-07 17:48 50.63433 8.73631 23058 ft 412 kts 120°
2026-05-07 17:49 50.62014 8.77553 23064 ft 412 kts 120°
2026-05-07 17:49 50.60594 8.81469 23063 ft 412 kts 120°
2026-05-07 17:49 50.59191 8.85334 23063 ft 412 kts 120°
2026-05-07 17:49 50.57767 8.89252 23061 ft 412 kts 120°
2026-05-07 17:50 50.56345 8.93158 23060 ft 412 kts 120°
2026-05-07 17:50 50.54920 8.97065 23062 ft 412 kts 120°
2026-05-07 17:50 50.53492 9.00974 23063 ft 412 kts 120°
2026-05-07 17:50 50.52065 9.04875 23059 ft 412 kts 120°
2026-05-07 17:51 50.50633 9.08783 23056 ft 413 kts 120°
2026-05-07 17:51 50.49200 9.12689 23056 ft 412 kts 120°
2026-05-07 17:51 50.47767 9.16591 23056 ft 412 kts 120°
2026-05-07 17:51 50.46332 9.20491 23056 ft 412 kts 120°
2026-05-07 17:52 50.44894 9.24391 23059 ft 412 kts 120°
2026-05-07 17:52 50.43458 9.28282 23062 ft 412 kts 120°
2026-05-07 17:52 50.42021 9.32168 23059 ft 412 kts 120°
2026-05-07 17:52 50.40583 9.36050 23056 ft 412 kts 120°
2026-05-07 17:53 50.39145 9.39930 23056 ft 412 kts 120°
2026-05-07 17:53 50.37704 9.43811 23056 ft 412 kts 120°
2026-05-07 17:53 50.36262 9.47689 23059 ft 412 kts 121°
2026-05-07 17:53 50.34819 9.51565 23058 ft 412 kts 121°
2026-05-07 17:54 50.33375 9.55434 23040 ft 412 kts 121°
2026-05-07 17:54 50.31927 9.59310 22810 ft 412 kts 121°
2026-05-07 17:54 50.30486 9.63161 22652 ft 408 kts 121°
2026-05-07 17:54 50.29052 9.66988 22758 ft 409 kts 121°
2026-05-07 17:55 50.27608 9.70837 22900 ft 411 kts 121°
2026-05-07 17:55 50.26163 9.74686 23025 ft 410 kts 121°
2026-05-07 17:55 50.24716 9.78530 23060 ft 410 kts 121°
2026-05-07 17:55 50.23269 9.82368 23057 ft 410 kts 121°
2026-05-07 17:56 50.21819 9.86207 23059 ft 411 kts 121°
2026-05-07 17:56 50.20367 9.90047 23059 ft 411 kts 121°
2026-05-07 17:56 50.18911 9.93892 23031 ft 411 kts 121°
2026-05-07 17:56 50.17458 9.97726 22797 ft 411 kts 121°
2026-05-07 17:57 50.16005 10.01551 22522 ft 408 kts 121°
2026-05-07 17:57 50.15048 10.04070 22344 ft 407 kts 121°
2026-05-07 17:57 50.13141 10.09079 21989 ft 405 kts 121°
2026-05-07 17:57 50.11685 10.12896 21717 ft 403 kts 121°
2026-05-07 17:58 50.10262 10.16583 21454 ft 401 kts 123°
2026-05-07 17:58 50.08754 10.20223 21199 ft 400 kts 123°
2026-05-07 17:58 50.07282 10.23892 20953 ft 399 kts 122°
2026-05-07 17:58 50.05811 10.27552 20683 ft 398 kts 122°
2026-05-07 17:59 50.04335 10.31184 20428 ft 397 kts 123°
2026-05-07 17:59 50.02853 10.34796 20178 ft 395 kts 123°
2026-05-07 17:59 50.01368 10.38390 19929 ft 394 kts 123°
2026-05-07 17:59 49.99886 10.41964 19678 ft 393 kts 123°
2026-05-07 18:00 49.98405 10.45530 19420 ft 392 kts 123°
2026-05-07 18:00 49.96923 10.49091 19194 ft 391 kts 123°
2026-05-07 18:00 49.95446 10.52636 18956 ft 391 kts 123°
2026-05-07 18:00 49.93964 10.56188 18715 ft 392 kts 123°
2026-05-07 18:01 49.92482 10.59738 18471 ft 392 kts 123°
2026-05-07 18:01 49.91004 10.63272 18220 ft 390 kts 123°
2026-05-07 18:01 49.89529 10.66795 17946 ft 388 kts 123°
2026-05-07 18:01 49.88562 10.69101 17776 ft 387 kts 123°
2026-05-07 18:02 49.85636 10.76067 17231 ft 384 kts 123°
2026-05-07 18:02 49.84182 10.79524 16967 ft 382 kts 123°
2026-05-07 18:02 49.82730 10.82969 16711 ft 381 kts 123°
2026-05-07 18:03 49.81284 10.86397 16449 ft 379 kts 124°
2026-05-07 18:03 49.79842 10.89811 16190 ft 378 kts 124°
2026-05-07 18:03 49.78406 10.93207 15954 ft 377 kts 123°
2026-05-07 18:03 49.76985 10.96561 15856 ft 367 kts 123°
2026-05-07 18:04 49.75609 10.99808 15732 ft 355 kts 124°
2026-05-07 18:04 49.74281 11.02939 15613 ft 342 kts 124°
2026-05-07 18:04 49.73000 11.05954 15492 ft 329 kts 124°
2026-05-07 18:04 49.71765 11.08855 15369 ft 316 kts 124°
2026-05-07 18:05 49.70589 11.11616 15208 ft 299 kts 124°
2026-05-07 18:05 49.69472 11.14236 14959 ft 287 kts 124°
2026-05-07 18:05 49.68375 11.16805 14522 ft 289 kts 124°
2026-05-07 18:05 49.67263 11.19408 13995 ft 290 kts 124°
2026-05-07 18:06 49.66526 11.21130 13625 ft 290 kts 124°
2026-05-07 18:06 49.65416 11.23724 13032 ft 290 kts 124°
2026-05-07 18:06 49.64309 11.26310 12464 ft 288 kts 124°
2026-05-07 18:06 49.63207 11.28881 11913 ft 286 kts 124°
2026-05-07 18:07 49.62119 11.31434 11396 ft 284 kts 124°
2026-05-07 18:07 49.60697 11.34818 10708 ft 283 kts 124°
2026-05-07 18:07 49.59976 11.36537 10363 ft 282 kts 124°
2026-05-07 18:07 49.58910 11.39076 9846 ft 282 kts 124°
2026-05-07 18:08 49.57845 11.41599 9289 ft 281 kts 124°
2026-05-07 18:08 49.56778 11.44114 8732 ft 280 kts 124°
2026-05-07 18:08 49.55714 11.46620 8188 ft 279 kts 124°
2026-05-07 18:08 49.54651 11.49110 7651 ft 277 kts 124°
2026-05-07 18:09 49.53559 11.51549 7125 ft 276 kts 134°
2026-05-07 18:09 49.52034 11.53230 6602 ft 268 kts 162°
2026-05-07 18:09 49.50232 11.53666 6081 ft 261 kts 183°
2026-05-07 18:09 49.48417 11.53633 5531 ft 261 kts 184°
2026-05-07 18:10 49.46609 11.53540 5001 ft 258 kts 193°
2026-05-07 18:10 49.45015 11.52513 4609 ft 241 kts 224°
2026-05-07 18:10 49.44097 11.50554 4459 ft 217 kts 252°
2026-05-07 18:10 49.43696 11.48399 4198 ft 206 kts 270°
2026-05-07 18:11 49.44032 11.46359 3892 ft 202 kts 304°
2026-05-07 18:11 49.45097 11.45052 3706 ft 196 kts 341°
2026-05-07 18:11 49.46467 11.44968 3608 ft 204 kts
2026-05-07 18:11 49.47965 11.45149 3754 ft 222 kts
2026-05-07 18:12 49.49425 11.45433 4027 ft 204 kts
2026-05-07 18:12 49.50724 11.46320 4103 ft 214 kts 40°
2026-05-07 18:12 49.51486 11.48287 4307 ft 220 kts 75°
2026-05-07 18:12 49.51352 11.50649 4242 ft 227 kts 117°
2026-05-07 18:13 49.50254 11.52275 3856 ft 226 kts 162°
2026-05-07 18:13 49.48745 11.52389 3518 ft 216 kts 204°
2026-05-07 18:13 49.47599 11.51104 3250 ft 199 kts 236°
2026-05-07 18:13 49.47012 11.49207 3118 ft 196 kts 262°
2026-05-07 18:14 49.46960 11.47124 3006 ft 192 kts 271°
2026-05-07 18:14 49.47095 11.45086 3070 ft 196 kts 281°
2026-05-07 18:14 49.47332 11.43023 2765 ft 194 kts 278°
2026-05-07 18:14 49.47380 11.40974 2844 ft 197 kts 273°
2026-05-07 18:15 49.47622 11.38823 3043 ft 209 kts 282°
2026-05-07 18:15 49.47734 11.36607 3347 ft 210 kts 276°
2026-05-07 18:15 49.47844 11.34378 3728 ft 208 kts 276°
2026-05-07 18:15 49.47951 11.32170 3982 ft 208 kts 276°
2026-05-07 18:16 49.48072 11.29908 4056 ft 211 kts 276°
2026-05-07 18:16 49.48194 11.27669 4052 ft 209 kts 276°
2026-05-07 18:16 49.48274 11.25446 4011 ft 204 kts 274°
2026-05-07 18:16 49.48366 11.23386 4010 ft 188 kts 276°
2026-05-07 18:17 49.48492 11.21365 3785 ft 189 kts 275°
2026-05-07 18:17 49.48633 11.19359 3202 ft 187 kts 276°
2026-05-07 18:17 49.48877 11.17400 2471 ft 185 kts 284°
2026-05-07 18:17 49.49132 11.15505 1928 ft 175 kts 278°
2026-05-07 18:18 49.49247 11.13735 1662 ft 156 kts 276°
2026-05-07 18:18 49.49428 11.12197 1434 ft 139 kts 277°
2026-05-07 18:18 49.49562 11.10785 1232 ft 126 kts 278°
2026-05-07 18:18 49.49704 11.09464 1067 ft 128 kts 279°
2026-05-07 18:19 49.49832 11.08219 1026 ft 100 kts 279°
2026-05-07 18:19 49.49914 11.07388 1029 ft 59 kts 278°
2026-05-07 18:19 49.49924 11.07045 1022 ft 12 kts 225°
2026-05-07 18:19 49.49846 11.07034 1021 ft 8 kts 154°
2026-05-07 18:20 49.49801 11.07062 1021 ft 0 kts 160°
2026-05-07 18:20 49.49776 11.07081 1022 ft 11 kts 149°
2026-05-07 18:20 49.49738 11.07208 1025 ft 15 kts 100°
2026-05-07 18:21 49.49720 11.07375 1027 ft 17 kts 99°
2026-05-07 18:21 49.49701 11.07559 1029 ft 17 kts 97°
2026-05-07 18:21 49.49690 11.07691 1032 ft 11 kts 97°
2026-05-07 18:21 49.49643 11.07769 1030 ft 11 kts 191°
2026-05-07 18:22 49.49568 11.07807 1029 ft 9 kts 170°
2026-05-07 18:22 49.49533 11.07792 1026 ft 9 kts 188°